When you browse on this site, cookies collect data to enhance your experience and personalize the content and advertising you see.
Visit our Privacy Policy to learn more. By continuing to use the site, you agree to this use of cookies and data.
  • en Suisse
  • Liste des pays
  • À 7 jours
  • Température de l'eau
  • Carte satellitaire
  • Carte météo
  • Widgets météo
  • user-avatar
    Se connecter

    Météo par heure à Nam Dinh

    Ce jour, 16 Juillet, Mardi

    Heure Température Précipitation Vent Pression Humidité
    00:00 +30°C° 0.1 mm 2 m/s 751 mmHg 83%
    01:00 +30°C° 0 mm 1 m/s 752 mmHg 82%
    02:00 +30°C° 0.2 mm 1 m/s 751 mmHg 83%
    03:00 +30°C° 0.2 mm 1 m/s 751 mmHg 83%
    04:00 +30°C° 0.2 mm 1 m/s 751 mmHg 84%
    05:00 +30°C° 0.1 mm 1 m/s 751 mmHg 83%
    06:00 +30°C° 0.1 mm 1 m/s 751 mmHg 82%
    07:00 +31°C° 0 mm 1 m/s 752 mmHg 83%
    08:00 +33°C° 0 mm 1 m/s 752 mmHg 76%
    09:00 +34°C° 0 mm 1 m/s 752 mmHg 69%
    10:00 +36°C° 0 mm 1 m/s 752 mmHg 61%
    11:00 +36°C° 0 mm 1 m/s 751 mmHg 58%
    12:00 +38°C° 0 mm 2 m/s 751 mmHg 56%
    13:00 +38°C° 0 mm 2 m/s 751 mmHg 52%
    14:00 +38°C° 0 mm 3 m/s 750 mmHg 54%
    15:00 +37°C° 0 mm 3 m/s 750 mmHg 56%
    16:00 +37°C° 0 mm 3 m/s 750 mmHg 58%
    17:00 +35°C° 0 mm 3 m/s 750 mmHg 64%
    18:00 +34°C° 0 mm 3 m/s 750 mmHg 70%
    19:00 +31°C° 0 mm 3 m/s 750 mmHg 76%
    20:00 +31°C° 0 mm 3 m/s 750 mmHg 78%
    21:00 +31°C° 0 mm 3 m/s 751 mmHg 81%
    22:00 +31°C° 0 mm 2 m/s 752 mmHg 83%
    23:00 +30°C° 0.3 mm 2 m/s 752 mmHg 84%

    Demain, 17 Juillet, Mercredi

    Heure Température Précipitation Vent Pression Humidité
    00:00 +30°C° 0.3 mm 2 m/s 752 mmHg 85%
    01:00 +30°C° 0.3 mm 2 m/s 751 mmHg 86%
    02:00 +30°C° 0 mm 2 m/s 751 mmHg 86%
    03:00 +30°C° 0 mm 1 m/s 751 mmHg 87%
    04:00 +29°C° 0 mm 1 m/s 751 mmHg 88%
    05:00 +30°C° 0.2 mm 1 m/s 751 mmHg 85%
    06:00 +31°C° 0.2 mm 2 m/s 751 mmHg 82%
    07:00 +32°C° 0.2 mm 2 m/s 751 mmHg 79%
    08:00 +34°C° 0.4 mm 3 m/s 751 mmHg 74%
    09:00 +35°C° 0.4 mm 3 m/s 751 mmHg 68%
    10:00 +36°C° 0.4 mm 3 m/s 751 mmHg 63%
    11:00 +37°C° 0 mm 3 m/s 751 mmHg 60%
    12:00 +38°C° 0 mm 3 m/s 750 mmHg 58%
    13:00 +38°C° 0 mm 3 m/s 750 mmHg 55%
    14:00 +38°C° 0 mm 3 m/s 749 mmHg 56%
    15:00 +37°C° 0 mm 3 m/s 748 mmHg 58%
    16:00 +37°C° 0 mm 4 m/s 747 mmHg 59%
    17:00 +36°C° 0 mm 4 m/s 748 mmHg 66%
    18:00 +34°C° 0 mm 4 m/s 748 mmHg 74%
    19:00 +32°C° 0 mm 4 m/s 749 mmHg 81%
    20:00 +31°C° 0 mm 3 m/s 750 mmHg 82%
    21:00 +31°C° 0 mm 2 m/s 750 mmHg 84%
    22:00 +31°C° 0 mm 2 m/s 751 mmHg 85%
    23:00 +31°C° 0 mm 2 m/s 751 mmHg 86%

    Après-demain, 18 Juillet, Jeudi

    Heure Température Précipitation Vent Pression Humidité
    00:00 +30°C° 0 mm 1 m/s 750 mmHg 86%
    01:00 +30°C° 0 mm 1 m/s 750 mmHg 87%
    02:00 +30°C° 0 mm 1 m/s 750 mmHg 87%
    03:00 +30°C° 0 mm 1 m/s 749 mmHg 88%
    04:00 +30°C° 0 mm 2 m/s 749 mmHg 88%
    05:00 +30°C° 0 mm 1 m/s 749 mmHg 85%
    06:00 +31°C° 0 mm 1 m/s 749 mmHg 83%
    07:00 +32°C° 0 mm 1 m/s 749 mmHg 80%
    08:00 +33°C° 0 mm 1 m/s 749 mmHg 73%
    09:00 +35°C° 0 mm 1 m/s 750 mmHg 66%
    10:00 +37°C° 0 mm 1 m/s 750 mmHg 59%
    11:00 +39°C° 0 mm 1 m/s 749 mmHg 56%
    12:00 +39°C° 0 mm 1 m/s 749 mmHg 53%
    13:00 +40°C° 0 mm 1 m/s 748 mmHg 51%
    14:00 +40°C° 0 mm 2 m/s 747 mmHg 53%
    15:00 +39°C° 0 mm 3 m/s 747 mmHg 55%
    16:00 +40°C° 0 mm 4 m/s 746 mmHg 57%
    17:00 +37°C° 0 mm 4 m/s 746 mmHg 63%
    18:00 +35°C° 0 mm 3 m/s 747 mmHg 70%
    19:00 +34°C° 0 mm 3 m/s 747 mmHg 76%
    20:00 +33°C° 0 mm 3 m/s 748 mmHg 78%
    21:00 +32°C° 0 mm 2 m/s 748 mmHg 79%
    22:00 +32°C° 0 mm 2 m/s 749 mmHg 80%
    23:00 +32°C° 0 mm 2 m/s 749 mmHg 81%

    19 Juillet, Vendredi

    Heure Température Précipitation Vent Pression Humidité
    00:00 +32°C° 0 mm 2 m/s 749 mmHg 81%
    01:00 +31°C° 0 mm 2 m/s 748 mmHg 82%
    02:00 +31°C° 0 mm 1 m/s 748 mmHg 82%
    03:00 +31°C° 0 mm 1 m/s 748 mmHg 82%
    04:00 +31°C° 0 mm 1 m/s 748 mmHg 82%
    05:00 +31°C° 0 mm 1 m/s 748 mmHg 81%
    06:00 +32°C° 0 mm 1 m/s 749 mmHg 80%
    07:00 +32°C° 0 mm 1 m/s 749 mmHg 79%
    08:00 +34°C° 0 mm 1 m/s 749 mmHg 72%
    09:00 +36°C° 0 mm 1 m/s 749 mmHg 65%
    10:00 +39°C° 0 mm 1 m/s 750 mmHg 57%
    11:00 +40°C° 0 mm 1 m/s 749 mmHg 53%
    12:00 +41°C° 0 mm 1 m/s 748 mmHg 49%
    13:00 +42°C° 0 mm 1 m/s 748 mmHg 45%
    14:00 +41°C° 0 mm 2 m/s 747 mmHg 49%
    15:00 +40°C° 0 mm 3 m/s 747 mmHg 53%
    16:00 +40°C° 0 mm 4 m/s 747 mmHg 56%
    17:00 +37°C° 0 mm 4 m/s 747 mmHg 62%
    18:00 +36°C° 0 mm 4 m/s 747 mmHg 67%
    19:00 +34°C° 0 mm 4 m/s 748 mmHg 73%
    20:00 +34°C° 0 mm 3 m/s 748 mmHg 74%
    21:00 +34°C° 0 mm 3 m/s 749 mmHg 75%
    22:00 +32°C° 0 mm 2 m/s 749 mmHg 77%
    23:00 +32°C° 0 mm 2 m/s 749 mmHg 78%

    20 Juillet, Samedi

    Heure Température Précipitation Vent Pression Humidité
    00:00 +32°C° 0 mm 2 m/s 749 mmHg 78%
    01:00 +32°C° 0 mm 2 m/s 749 mmHg 79%
    02:00 +32°C° 0 mm 2 m/s 749 mmHg 80%
    03:00 +32°C° 0 mm 2 m/s 748 mmHg 81%
    04:00 +31°C° 0 mm 2 m/s 748 mmHg 82%
    05:00 +32°C° 0 mm 2 m/s 749 mmHg 80%
    06:00 +32°C° 0 mm 2 m/s 749 mmHg 78%
    07:00 +33°C° 0 mm 1 m/s 749 mmHg 77%
    08:00 +35°C° 0 mm 2 m/s 749 mmHg 70%
    09:00 +37°C° 0 mm 2 m/s 749 mmHg 63%
    10:00 +39°C° 0 mm 2 m/s 749 mmHg 56%
    11:00 +40°C° 0 mm 2 m/s 749 mmHg 52%
    12:00 +41°C° 0 mm 2 m/s 748 mmHg 48%
    13:00 +42°C° 0 mm 2 m/s 747 mmHg 44%
    14:00 +42°C° 0 mm 3 m/s 747 mmHg 47%
    15:00 +41°C° 0 mm 4 m/s 746 mmHg 50%
    16:00 +41°C° 0 mm 5 m/s 746 mmHg 53%
    17:00 +39°C° 0 mm 5 m/s 746 mmHg 59%
    18:00 +36°C° 0 mm 5 m/s 746 mmHg 65%
    19:00 +35°C° 0 mm 4 m/s 747 mmHg 71%
    20:00 +34°C° 0 mm 4 m/s 747 mmHg 72%
    21:00 +34°C° 0 mm 4 m/s 748 mmHg 73%
    22:00 +34°C° 0 mm 3 m/s 748 mmHg 74%
    23:00 +34°C° 0 mm 3 m/s 748 mmHg 75%

    21 Juillet, Dimanche

    Heure Température Précipitation Vent Pression Humidité
    00:00 +33°C° 0 mm 3 m/s 748 mmHg 77%
    01:00 +32°C° 0 mm 2 m/s 747 mmHg 78%
    02:00 +32°C° 0 mm 2 m/s 747 mmHg 78%
    03:00 +32°C° 0 mm 2 m/s 747 mmHg 77%
    04:00 +33°C° 0 mm 3 m/s 747 mmHg 77%
    05:00 +32°C° 0 mm 2 m/s 747 mmHg 76%
    06:00 +32°C° 0 mm 2 m/s 747 mmHg 76%
    07:00 +32°C° 0 mm 2 m/s 748 mmHg 75%
    08:00 +35°C° 0 mm 2 m/s 748 mmHg 67%
    09:00 +37°C° 0 mm 2 m/s 748 mmHg 59%
    10:00 +39°C° 0 mm 2 m/s 748 mmHg 51%
    11:00 +40°C° 0 mm 2 m/s 747 mmHg 46%
    12:00 +42°C° 0 mm 2 m/s 747 mmHg 42%
    13:00 +44°C° 0 mm 3 m/s 746 mmHg 37%
    14:00 +43°C° 0 mm 3 m/s 745 mmHg 41%
    15:00 +42°C° 0 mm 4 m/s 745 mmHg 44%
    16:00 +41°C° 0 mm 5 m/s 744 mmHg 47%
    17:00 +40°C° 0 mm 5 m/s 745 mmHg 53%
    18:00 +37°C° 0 mm 5 m/s 745 mmHg 58%
    19:00 +35°C° 0 mm 5 m/s 745 mmHg 64%
    20:00 +35°C° 0 mm 5 m/s 746 mmHg 66%
    21:00 +35°C° 0 mm 4 m/s 747 mmHg 67%
    22:00 +35°C° 0 mm 4 m/s 748 mmHg 69%
    23:00 +34°C° 0 mm 4 m/s 747 mmHg 68%
    Voir plus